Weather History for Kecskemet, Hungary

Change the Weather History Date:

Friday, June 14, 2013

  Actual Average (LHBP) Record (LHBP)
Temperature  
Mean Temperature 68 °F -  
Max Temperature 82 °F 76 °F 96 °F (2000)
Min Temperature 55 °F 55 °F 51 °F (1998)
Cooling Degree Days 4    
Growing Degree Days 18 (Base 50)    
Moisture  
Dew Point 55 °F    
Average Humidity 61    
Maximum Humidity 94    
Minimum Humidity 34    
Precipitation  
Precipitation 0.00 in - - ()
Sea Level Pressure  
Sea Level Pressure 30.01 in    
Wind  
Wind Speed 3 mph ()    
Max Wind Speed 9 mph    
Max Gust Speed -    
Visibility 6.2 miles    
Events      
Averages and records for this station are not official NWS values.
T = Trace of Precipitation, MM = Missing Value Source: Averaged Metar Reports

Daily Weather History Graph

Daily Weather History Graph

Search for Another Location

Airport:

Trip Planner

Search our weather history database for the weather conditions in past years. The results will help you decide how hot, cold, wet, or windy it might be!

Date:

Astronomy

Jun. 14, 2013 Rise Set
Actual Time 4:45 AM CEST 8:37 PM CEST
Civil Twilight 4:06 AM CEST 9:16 PM CEST
Nautical Twilight 3:12 AM CEST 10:10 PM CEST
Astronomical Twilight 1:52 AM CEST 11:30 PM CEST
Moon 10:20 AM CEST (6/14) 11:43 PM CEST (6/14)
Length of Visible Light 17h 10m
Length of Day
15h 51m
Waxing Crescent, 28% of the Moon is Illuminated
Jun 14
Waxing Crescent
Jun 16
First Quarter
Jun 23
Full
Jun 30
Last Quarter
Jul 8
New

Hourly Weather History & Observations

Time (CEST) Temp. Heat Index Dew Point Humidity Pressure Visibility Wind Dir Wind Speed Gust Speed Precip Events Conditions
12:15 AM 60.8 °F - 55.4 °F 82% 30.04 in - West 2.2 mph - N/A   Clear
12:45 AM 60.8 °F - 55.4 °F 82% 30.04 in - NW 2.2 mph - N/A   Clear
1:15 AM 59.0 °F - 55.4 °F 88% 30.04 in - Calm Calm - N/A   Clear
1:45 AM 59.0 °F - 55.4 °F 88% 30.01 in - NW 2.2 mph - N/A   Clear
2:15 AM 57.2 °F - 55.4 °F 94% 30.01 in - NNW 2.2 mph - N/A   Clear
2:45 AM 57.2 °F - 55.4 °F 94% 30.01 in - NNW 2.2 mph - N/A   Clear
3:15 AM 57.2 °F - 55.4 °F 94% 30.01 in - NW 2.2 mph - N/A   Clear
3:45 AM - - - N/A% - 6.2 mi Variable 4.5 mph - N/A   Clear
4:15 AM 55.4 °F - 53.6 °F 94% 30.01 in - NW 4.5 mph - N/A   Clear
4:45 AM 55.4 °F - 51.8 °F 88% 30.01 in - NW 2.2 mph - N/A   Clear
5:15 AM 55.4 °F - 51.8 °F 88% 30.01 in - NW 4.5 mph - N/A   Clear
5:45 AM 57.2 °F - 53.6 °F 88% 30.01 in - WNW 2.2 mph - N/A   Clear
6:15 AM 60.8 °F - 57.2 °F 88% 30.01 in - Calm Calm - N/A   Clear
6:45 AM - - - N/A% - 6.2 mi Variable 4.5 mph - N/A   Clear
7:15 AM 66.2 °F - 59.0 °F 78% 30.01 in - North 2.2 mph - N/A   Clear
7:45 AM 69.8 °F - 59.0 °F 68% 30.04 in - Variable 2.2 mph - N/A   Clear
8:15 AM 73.4 °F - 57.2 °F 57% 30.04 in - Variable 2.2 mph - N/A   Clear
8:45 AM 73.4 °F - 60.8 °F 65% 30.04 in - Variable 2.2 mph - N/A   Clear
9:15 AM 75.2 °F - 57.2 °F 53% 30.04 in - NNW 2.2 mph - N/A   Clear
9:45 AM - - - N/A% - 6.2 mi Variable 4.5 mph - N/A   Scattered Clouds
10:15 AM 77.0 °F - 55.4 °F 47% 30.04 in 6.2 mi NNW 4.5 mph - N/A   Scattered Clouds
10:45 AM 78.8 °F - 51.8 °F 39% 30.04 in - WNW 4.5 mph - N/A   Clear
11:15 AM 78.8 °F - 55.4 °F 44% 30.04 in - North 4.5 mph - N/A   Clear
11:45 AM 80.6 °F 80.3 °F 53.6 °F 39% 30.04 in - NW 4.5 mph - N/A   Clear
12:15 PM 80.6 °F - 51.8 °F 37% 30.04 in - NNW 4.5 mph - N/A   Clear
12:45 PM - - - N/A% - - WNW 8.9 mph - N/A   Clear
1:15 PM 80.6 °F 80.3 °F 53.6 °F 39% 30.04 in - WNW 6.7 mph - N/A   Clear
1:45 PM 80.6 °F 80.3 °F 53.6 °F 39% 30.01 in - WNW 6.7 mph - N/A   Clear
2:15 PM 80.6 °F 80.3 °F 53.6 °F 39% 30.01 in - West 6.7 mph - N/A   Clear
2:45 PM 80.6 °F 80.8 °F 57.2 °F 45% 30.01 in - WNW 4.5 mph - N/A   Clear
3:15 PM 80.6 °F - 50.0 °F 34% 30.01 in - West 4.5 mph - N/A   Clear
3:45 PM 82.4 °F 81.4 °F 53.6 °F 37% 30.01 in - West 4.5 mph - N/A   Clear
4:15 PM 80.6 °F - 51.8 °F 37% 30.01 in - West 6.7 mph - N/A   Clear
4:45 PM 80.6 °F 80.3 °F 53.6 °F 39% 30.01 in - WNW 6.7 mph - N/A   Clear
5:15 PM 80.6 °F - 51.8 °F 37% 29.98 in - WNW 6.7 mph - N/A   Clear
5:45 PM 80.6 °F 80.5 °F 55.4 °F 42% 29.98 in - West 6.7 mph - N/A   Clear
6:15 PM 78.8 °F - 55.4 °F 44% 29.98 in - WNW 4.5 mph - N/A   Clear
6:45 PM 80.6 °F 80.3 °F 53.6 °F 39% 29.98 in - WNW 4.5 mph - N/A   Clear
7:15 PM 80.6 °F 80.3 °F 53.6 °F 39% 29.98 in - WNW 2.2 mph - N/A   Clear
7:45 PM 78.8 °F - 55.4 °F 44% 29.98 in - WNW 2.2 mph - N/A   Clear
8:15 PM 75.2 °F - 59.0 °F 57% 29.98 in - WNW 4.5 mph - N/A   Clear
8:45 PM 75.2 °F - 57.2 °F 53% 29.98 in - WNW 2.2 mph - N/A   Clear
9:15 PM 69.8 °F - 57.2 °F 64% 30.01 in - Calm Calm - N/A   Clear
9:45 PM 69.8 °F - 59.0 °F 68% 30.01 in - WNW 2.2 mph - N/A   Clear
10:15 PM 68.0 °F - 59.0 °F 73% 30.01 in - West 2.2 mph - N/A   Clear
10:45 PM 66.2 °F - 59.0 °F 78% 30.01 in - West 2.2 mph - N/A   Clear
11:15 PM 66.2 °F - 59.0 °F 78% 30.01 in - Calm Calm - N/A   Clear
11:45 PM 66.2 °F - 59.0 °F 78% 30.01 in - West 2.2 mph - N/A   Clear